SCP
0 0 0 0 0 0 0 0 0 0 0 0 0 0 0 0 0 0 0 0 0 0 0 0 0 0 0 0 0 0 0 0 0 0 0 0 0 0 0 0 0 0 0 0
0 0 0 0 0 0 0 0 0 0 0 0 0 0 0 0 0 0 0 0 0 0 0 0 0 0 0 0 0 0 0 0 0 0 0 0 0 0 0 0 0 0 0 0
0 0 0 0 0 0 0 0 0 0 0 0 0 0 0 0 0 0 -0 0 0 0 0 0 0 0 0 0 0 0 0 0 0 0 0 0 0 0 0 0 0 0 0 0
0 0 0 0 0 0 0 0 0 0 0 0 0 0 0 0 0 0 0 0 0 0 0 0 0 0 0 0 0 0 0 0 0 0 0 0 0 0 0 0 0 0 0 0
0 0 0 0 0 0 0 0 0 0 0 0 0 0 0 0 0 0 0 0 0 0 0 0 0 0 0 0 0 0 0 0 0 0 0 0 0 0 0 0 0 0 0 0
0 0 0 0 0 0 0 0 0 0 0 0 0 0 0 0 0 0 0 0 0 0 0 0 0 0 0 0 0 0 0 0 0 0 0 0 0 0 0 0 0 0 0 0
0 0 0 0 0 0 0 0 0 0 0 0 0 0 0 0 0 0 0 0 0 0 0 0 0 0 0 0 0 0 0 0 0 0 0 0 0 0 0 0 0 0 0 0
0 0 0 0 0 0 0 0 0 0 0 0 0 -0 -0 -0 0 0 0 0 0 0 0 0 0 0 0 0 0 0 0 0 0 0 0 0 0 0 0 0 0 0 0 0
0 0 0 0 0 0 0 0 0 0 0 -0 -0 -0 -0 -0 -0 0 0 0 0 0 0 0 0 0 0 0 0 0 0 0 0 0 0 0 0 0 0 0 0 0 0 0
0 0 0 0 0 0 0 0 0 0 0 0 0 -0 -0 -0 -0 0 0 0 0 0 0 0 0 0 0 0 0 0 0 0 0 0 0 0 0 0 0 0 0 0 0 0
0 0 0 0 0 0 0 0 0 0 0 0 0 -0 -0 -0 -0 0 0 0 0 0 0 0 0 0 0 0 0 0 0 0 0 0 0 0 0 0 0 0 0 0 0 0
0 0 0 0 0 0 0 0 0 0 0 0 0 0 -0 -0 -0 0 0 0 0 0 0 0 0 0 0 0 0 0 0 0 0 0 0 0 0 0 0 0 0 0 0 0
0 0 0 0 0 0 -0 0 0 0 0 0 -0 -0 0 0 0 0 0 0 0 0 0 0 0 0 0 0 0 0 0 0 0 0 0 0 0 0 0 0 0 0 0 0
0 0 0 0 0 -0 -0 0 0 0 0 0 0 -0 -0 -0 0 0 0 0 0 0 0 0 0 0 0 0 0 0 0 0 0 0 0 0 0 0 0 0 0 0 0 0
0 0 0 0 0 0 -0 0 0 0 0 0 0 -0 -0 0 0 0 0 0 0 0 0 0 0 0 0 0 0 0 0 0 0 0 0 0 0 0 0 0 0 0 0 0
0 0 0 0 0 0 0 0 0 0 0 0 0 0 0 0 0 0 0 0 0 0 0 0 0 0 0 0 0 0 0 0 0 0 0 0 0 0 0 0 0 0 0 0
0 0 0 0 0 0 0 0 0 0 0 0 0 0 0 0 0 0 0 0 0 0 0 0 0 0 0 0 0 0 0 0 0 0 0 0 0 0 0 0 0 0 0 0
0 0 0 0 0 0 0 0 0 0 0 0 0 0 0 0 0 0 0 0 0 0 0 0 0 0 0 0 0 0 0 0 0 0 0 0 0 0 0 0 0 0 0 0
0 0 0 0 0 0 0 0 0 0 0 0 0 0 0 0 0 0 0 0 0 0 0 0 0 0 0 0 0 0 0 0 0 0 0 0 0 0 0 0 0 0 0 0
0 0 0 0 0 0 0 0 0 0 0 0 0 0 0 0 0 0 0 0 0 0 0 0 0 0 0 0 0 0 0 0 0 0 0 0 0 0 0 0 0 0 0 0
0 0 0 0 0 0 0 0 0 0 0 0 0 0 0 0 0 0 0 0 0 0 0 0 0 0 0 0 0 0 0 0 0 0 0 0 0 0 0 0 0 0 0 0
0 0 0 0 0 0 0 0 0 0 0 0 0 0 0 0 0 0 0 0 0 0 0 0 0 0 0 0 0 0 0 0 0 0 0 0 0 0 0 0 0 0 0 0
0 0 0 0 0 0 0 0 0 0 0 0 0 0 0 0 0 0 0 0 0 0 0 0 0 0 0 0 0 0 0 0 0 0 0 0 0 0 0 0 0 0 0 0
0 0 0 0 0 0 0 0 0 0 0 0 0 0 0 0 0 0 0 0 0 0 0 0 0 0 0 0 0 0 0 0 0 0 0 0 0 0 0 0 0 0 0 0
0 0 0 0 0 0 0 0 0 0 0 0 0 0 0 0 0 0 0 0 0 0 0 0 0 0 0 0 0 0 0 0 0 0 0 0 0 0 0 0 0 0 0 0
0 0 0 0 0 0 0 0 0 0 0 0 0 0 0 0 0 0 0 0 0 0 0 0 0 0 0 0 0 0 0 0 0 0 0 0 0 0 0 0 0 0 0 0
-0 0 0 0 0 0 0 0 0 0 0 0 0 0 0 0 0 0 0 0 0 0 0 0 0 0 0 0 0 0 0 0 0 0 0 0 0 0 0 0 0 0 0 0
Wind_Speed
5 5 3 5 6 5 6 8 8 9 9 10 7 6 5 3 2 2 2 3 3 3 3 3 2 2 3 3 3 3 3 3 3 3 2 2 2 2 2 2 3 3 2 2
3 3 3 5 7 7 8 7 7 7 9 7 4 3 3 4 4 4 4 4 4 3 3 4 4 3 3 3 3 3 4 4 3 2 2 2 2 2 2 2 2 2 2 2
3 3 2 6 7 7 6 7 7 9 10 4 2 4 6 5 5 6 6 5 4 5 5 5 5 5 5 4 3 3 3 3 2 2 2 2 2 2 2 2 2 3 3 2
1 0 6 8 3 5 6 6 6 6 6 5 6 4 3 4 5 5 5 4 4 4 4 3 3 3 3 3 4 4 3 3 3 3 3 2 2 2 2 2 2 3 3 3
3 3 7 7 2 3 4 6 5 6 6 4 1 1 3 2 4 5 5 4 4 4 3 2 2 2 3 3 3 4 4 4 3 4 3 3 3 3 2 2 2 2 2 3
3 3 6 6 3 1 2 5 4 3 4 2 3 1 5 2 1 2 2 2 2 2 1 1 1 2 3 4 4 5 5 5 4 4 4 4 4 3 2 2 2 2 1 1
4 5 8 6 3 2 3 6 4 3 4 4 5 5 4 1 1 1 1 1 2 2 2 1 1 2 2 3 5 5 4 3 3 4 4 4 3 2 2 2 2 2 2 1
4 4 8 2 2 3 5 4 3 3 3 4 4 2 1 1 1 1 1 1 2 2 1 0 2 3 2 3 4 2 2 3 3 3 3 3 3 2 3 3 3 2 2 1
7 7 4 3 3 4 3 3 3 3 3 2 2 2 1 1 1 1 1 1 1 2 1 0 1 2 3 3 1 1 2 2 2 2 2 3 4 4 3 3 3 2 1 1
4 6 5 5 4 3 2 2 3 3 2 2 2 1 1 1 1 0 1 1 1 1 1 1 1 1 2 2 1 2 2 2 2 3 2 2 2 3 3 3 3 2 2 1
5 6 5 5 4 4 4 3 2 2 0 1 2 1 1 1 1 1 1 1 1 2 2 2 1 1 1 1 2 2 1 1 1 2 3 3 3 3 3 3 4 4 3 3
7 6 4 6 5 4 3 3 2 1 2 2 0 1 1 2 2 2 2 1 1 1 2 2 1 1 1 1 2 3 2 2 2 2 2 2 2 1 1 2 3 4 3 3
7 5 5 6 5 4 3 3 2 2 1 1 2 1 1 1 1 2 1 2 2 2 2 2 1 2 2 2 2 3 3 3 2 2 2 2 2 2 1 0 1 2 2 2
5 3 4 5 5 4 3 2 2 2 1 1 1 1 0 1 1 2 2 3 2 2 2 2 2 3 2 2 2 3 2 3 3 3 3 3 3 2 2 2 1 1 2 2
5 4 5 5 4 3 2 1 0 1 2 2 1 1 1 1 2 2 2 1 1 1 2 1 2 3 2 2 2 3 2 2 2 2 2 2 2 2 2 2 2 1 1 1
5 3 3 3 4 3 2 2 2 2 2 2 2 2 2 1 1 1 1 1 1 1 2 1 2 3 2 2 2 2 2 4 3 2 2 2 2 2 2 2 2 2 2 2
2 3 3 3 4 3 3 3 3 3 2 2 3 2 1 0 1 1 1 1 1 2 2 2 3 2 1 2 2 2 1 2 4 2 2 3 3 3 3 3 2 2 3 3
5 5 5 5 4 3 3 3 3 3 3 3 2 1 1 2 2 2 2 1 1 1 2 2 2 1 1 2 2 2 2 1 2 2 2 3 3 3 3 3 3 3 2 2
3 3 2 3 3 3 3 3 2 2 2 1 1 1 2 2 2 2 1 1 1 2 4 3 2 1 1 2 2 2 2 2 1 1 2 3 2 2 2 3 3 3 3 2
2 1 1 1 1 1 1 1 1 1 1 1 1 0 1 2 1 1 1 1 2 3 3 2 1 1 1 2 3 2 2 2 2 2 2 2 2 3 3 3 3 3 3 3
2 1 0 0 1 1 1 1 1 1 1 0 1 2 2 2 1 1 1 2 3 2 2 1 1 1 1 2 3 2 2 2 2 2 2 2 3 3 3 3 3 3 3 3
2 2 1 1 0 1 1 1 1 1 1 1 1 1 1 1 1 1 2 3 3 3 1 1 1 2 2 3 2 2 2 2 2 2 2 2 2 3 3 3 3 3 3 3
2 1 1 1 1 1 2 1 1 1 1 1 1 1 2 2 2 2 3 3 2 3 2 2 2 3 3 2 2 2 2 2 2 2 2 2 2 3 3 3 3 3 3 3
2 1 1 1 0 0 1 2 1 1 1 1 2 2 2 1 2 2 2 3 3 3 2 2 3 3 2 1 2 2 2 2 2 2 2 2 2 2 2 3 3 3 3 4
2 1 1 1 1 1 2 2 1 1 1 1 1 2 2 1 2 2 1 2 2 2 1 2 2 1 1 1 1 1 2 2 2 2 2 2 2 2 2 2 3 3 3 3
2 1 2 2 2 2 1 1 1 1 1 1 2 2 2 1 1 1 1 1 2 1 1 1 1 1 0 1 1 1 2 2 2 2 2 2 2 2 2 3 3 3 3 3
2 1 1 1 2 1 1 1 1 1 1 2 2 2 2 1 1 1 1 1 1 1 1 1 0 0 0 1 1 1 1 1 1 1 1 2 2 2 2 3 3 2 3 3
Wind_Direction
243 251 233 235 236 207 203 204 208 236 237 254 251 244 240 225 198 173 188 192 205 213 219 219 221 222 214 212 199 184 176 187 207 213 209 202 196 200 197 195 191 182 181 190
272 265 253 258 253 233 228 222 227 246 258 252 251 224 218 209 194 202 217 216 219 218 218 219 218 218 213 212 205 182 185 199 201 184 181 187 191 182 171 180 178 158 172 184
257 284 321 265 231 218 224 218 200 225 244 248 236 225 221 215 207 213 219 215 216 220 218 222 219 209 207 208 191 180 191 196 190 181 184 198 189 169 184 187 171 177 187 188
215 51 241 247 243 213 225 246 226 233 249 234 229 239 243 213 208 220 217 213 220 225 226 224 216 212 203 187 179 181 186 192 191 180 191 187 173 184 197 181 176 193 193 195
156 216 272 291 268 190 207 260 234 231 252 256 243 14 307 232 205 215 212 209 213 214 211 205 206 202 180 179 182 184 194 200 197 188 185 179 188 201 193 172 179 186 180 181
161 196 240 250 269 251 138 276 273 229 241 226 121 164 266 261 206 214 205 189 185 173 142 159 213 173 173 188 191 204 208 205 198 189 185 189 195 194 183 165 171 162 158 168
195 228 259 261 284 90 174 251 279 237 231 195 197 217 237 238 180 161 166 169 151 139 152 196 178 151 182 200 216 221 205 192 189 188 188 185 179 170 156 144 136 134 137 143
173 215 253 284 83 175 234 276 283 266 241 211 224 242 238 180 149 120 118 121 130 137 171 147 144 147 177 231 240 213 178 176 181 181 179 163 155 152 147 140 136 136 126 84
196 222 257 267 246 267 265 268 273 260 255 203 199 221 216 211 186 167 150 147 151 152 144 352 175 169 194 241 230 167 150 170 174 166 162 156 155 153 143 144 146 153 152 179
250 266 280 288 288 299 296 271 277 258 239 191 192 198 181 177 192 200 169 166 153 141 155 249 256 220 212 221 178 151 158 179 172 162 159 154 155 157 154 160 164 167 171 203
262 278 301 295 290 301 318 331 334 329 275 184 152 188 202 203 212 216 206 201 174 175 205 237 240 243 237 200 160 147 160 174 171 173 172 165 162 170 170 176 173 174 189 194
242 247 237 268 284 298 302 300 292 314 336 328 217 210 220 223 217 209 220 209 191 203 218 241 238 246 249 202 172 163 170 190 190 176 171 165 161 152 150 160 165 168 171 175
245 254 246 271 286 289 278 275 268 248 227 275 297 236 206 244 233 212 216 224 219 223 228 232 236 249 247 201 175 178 188 192 184 176 173 172 172 167 166 61 128 158 172 187
253 249 265 269 271 278 277 282 294 310 311 282 272 286 286 277 244 232 238 234 228 232 238 226 225 246 249 206 178 186 194 191 181 183 182 180 182 183 178 176 189 255 254 229
264 240 241 262 275 285 285 266 296 318 324 321 308 287 266 261 246 250 257 242 184 227 250 239 242 262 257 197 183 189 187 192 185 178 178 177 172 172 178 185 194 215 272 270
271 270 250 239 248 259 251 229 226 258 274 280 284 289 281 275 263 251 248 200 174 226 248 243 254 262 246 187 178 193 198 190 176 170 168 167 166 173 185 196 204 213 224 233
247 262 251 245 248 250 243 242 236 241 250 258 258 259 249 282 323 298 291 267 223 230 240 240 256 266 217 174 168 177 182 186 177 169 174 178 181 190 197 200 212 223 236 236
236 232 227 217 220 235 250 249 240 238 245 247 238 218 202 198 227 250 256 284 1 334 300 268 251 235 190 173 167 164 163 170 177 184 183 186 190 194 197 204 216 226 241 244
278 256 242 229 226 219 227 237 243 239 241 213 200 227 231 230 230 237 219 175 201 285 290 282 250 214 201 198 170 158 159 164 175 191 187 191 194 194 202 211 221 226 228 229
314 273 236 243 250 207 220 241 246 281 275 182 172 247 281 270 247 221 201 224 242 250 261 265 234 218 214 204 178 163 168 173 181 188 191 196 205 212 215 222 227 232 235 233
351 338 305 287 311 298 226 203 185 233 275 232 196 228 246 269 260 209 189 262 287 285 267 248 238 230 212 200 184 164 170 175 181 188 197 209 218 221 223 226 230 232 236 238
344 346 332 336 347 318 303 243 195 204 247 263 251 214 206 281 281 256 237 238 258 270 264 247 240 235 226 199 166 167 176 180 187 191 203 215 220 227 230 229 231 235 235 233
325 318 304 285 264 284 311 298 226 202 229 240 228 225 227 242 232 221 264 270 257 255 249 238 246 245 235 178 160 174 183 189 200 207 215 222 228 229 232 237 240 241 237 237
321 312 297 297 340 35 313 300 298 271 241 238 246 243 234 255 279 253 240 260 270 263 254 250 250 240 206 139 157 175 193 203 211 221 225 227 228 234 240 242 246 246 242 240
302 297 307 321 311 281 273 297 326 320 314 308 299 290 276 235 231 261 269 251 261 276 276 258 254 230 155 146 167 184 203 213 211 213 219 226 236 241 246 250 253 253 251 249
288 277 271 265 262 264 262 254 269 280 284 299 302 303 308 312 291 274 273 264 258 266 271 266 263 256 152 189 203 207 215 238 250 237 224 228 238 244 250 251 257 258 261 259
306 292 295 308 305 285 263 233 230 251 248 244 269 285 295 303 301 290 281 272 270 260 254 260 261 235 226 234 232 229 230 233 236 237 238 240 245 248 251 251 256 262 265 265